Location: Unspecified
(0.0000°N, 0.0000°E)
Time: 08:52:37
(UTC+00:00)

HuskySat-1 - Visible Passes

Search period start: 07 July 2020 00:00
Search period end: 17 July 2020 00:00
Orbit: 457 x 472 km, 51.6° (Epoch: 06 July)

Date Brightness Start Highest point End Pass type
(mag) Time Alt. Az. Time Alt. Az. Time Alt. Az.
14 Jul ? 19:41:48 10° SSW 19:43:03 20° SSW 19:43:03 20° SSW visible
15 Jul ? 19:08:52 10° SSW 19:12:27 51° SE 19:15:29 14° NE visible
16 Jul ? 18:36:01 10° SSW 18:39:25 36° SE 18:42:50 10° ENE visible
